Tracking 20621 objects as of 30-Mar-2020
HD Live streaming from Space Station
objects crossing your sky now

THOR ABLESTAR DEB

Track THOR ABLESTAR DEB now!
10-day predictions


NORAD ID: 2432
Int'l Code: 1963-049G
Perigee: 1,062.8 km
Apogee: 1,112.0 km
Inclination: 89.9 °
Period: 106.8 minutes
Semi major axis: 7458 km
RCS: 0.149 m2 (medium)
Launch date: December 5, 1963
Source: United States (US)
Launch site: AIR FORCE WESTERN TEST RANGE (AFWTR)

Note: This is SATELLITE DEBRIS
aabbcc
Your satellite tracking list
Your tracking list is empty




NASA's NSSDC Master Catalog

Two Line Element Set (TLE):
1  2432U 63049G   20089.93259797 +.00000031 +00000-0 +35598-4 0  9991
2  2432 089.8990 091.4588 0032982 292.9465 126.6607 13.47837479766844
Source of the keplerian elements: AFSPC